Tracking 26325 objects as of 28-Nov-2022
HD Live streaming from Space Station
objects crossing your sky now

WESTFORD NEEDLES

Track WESTFORD NEEDLES now!
10-day predictions
WESTFORD NEEDLES is classified as:


NORAD ID: 19051
Int'l Code: 1963-014EA
Perigee: 2,897.4 km
Apogee: 4,368.8 km
Inclination: 87.2 °
Period: 166.0 minutes
Semi major axis: 10004 km
RCS: 0.357 m2 (medium)
Launch date: May 9, 1963
Source: United States (US)
Launch site: AIR FORCE WESTERN TEST RANGE (AFWTR)
aabbcc
Your satellite tracking list
Your tracking list is empty




NASA's NSSDC Master Catalog

Two Line Element Set (TLE):
1 19051U 63014EA  22331.23078966 -.00001345  00000-0 -46948+0 0  9997
2 19051  87.2260 277.5217 0735407 241.9431 110.5185  8.67635805330841
Source of the keplerian elements: AFSPC